This demonstration page uses our WeatherBlox Daily Observations layout. Learn more.

Left ArrowRight Arrow

Hourly Observations for May 13, 2022

Temp ( °F °C ) Dew Point ( °F °C ) Humidity (%) Winds ( mph kmh ) Pressure ( in mb ) Visibility ( mi km ) Precip ( " mm )
12:52 am 00:52 Clear 72 22.2 64 17.8 76 76 SSE 8 13 29.87 1012 10 16 0.00 0.00
1:52 am 01:52 Clear 71 21.7 65 18.3 81 81 SSE 10 17 29.86 1011 10 16 0.00 0.00
2:52 am 02:52 Clear 71 21.7 66 18.9 84 84 SSE 10 17 29.85 1011 10 16 0.00 0.00
3:52 am 03:52 Clear 67 19.4 64 17.8 91 91 SSE 7 11 29.86 1011 10 16 0.00 0.00
4:52 am 04:52 Clear 68 20 65 18.3 90 90 SSE 10 17 29.85 1011 10 16 0.00 0.00
5:52 am 05:52 Clear 68 20 65 18.3 90 90 SSW 3 6 29.86 1011 9 14 0.00 0.00
6:52 am 06:52 Sunny 67 19.4 65 18.3 93 93 S 3 6 29.93 1014 7 11 0.00 0.00
7:52 am 07:52 Sunny 75 23.9 67 19.4 76 76 W 6 9 29.94 1014 10 16 0.00 0.00
8:52 am 08:52 Sunny 76 24.4 66 18.9 72 72 NW 8 13 29.96 1014 10 16 0.00 0.00
9:52 am 09:52 Sunny 76 24.4 66 18.9 72 72 N 8 13 29.94 1014 10 16 0.00 0.00
10:52 am 10:52 Sunny 80 26.7 66 18.9 62 62 NNE 9 15 29.92 1013 10 16 0.00 0.00
11:52 am 11:52 Sunny 80 26.7 66 18.9 62 62 E 9 15 29.91 1013 10 16 0.00 0.00
12:52 pm 12:52 Sunny 83 28.3 66 18.9 57 57 VRB 7 11 29.90 1013 10 16 0.00 0.00
1:52 pm 13:52 Mostly Cloudy 84 28.9 67 19.4 57 57 SSW 6 9 29.88 1012 10 16 0.00 0.00
2:52 pm 14:52 Sunny 85 29.4 64 17.8 50 50 Calm 29.83 1010 10 16 0.00 0.00
3:52 pm 15:52 Sunny 86 30 64 17.8 48 48 SSE 7 11 29.81 1010 10 16 0.00 0.00
4:52 pm 16:52 Mostly Sunny 82 27.8 70 21.1 67 67 N 13 20 29.84 1011 10 16 0.00 0.00
5:52 pm 17:52 Sunny 84 28.9 70 21.1 63 63 N 9 15 29.83 1010 10 16 0.00 0.00
6:52 pm 18:52 Sunny 84 28.9 68 20 59 59 E 5 7 29.82 1010 10 16 0.00 0.00
7:52 pm 19:52 Sunny 82 27.8 68 20 63 63 Calm 29.83 1010 10 16 0.00 0.00
8:52 pm 20:52 Clear 76 24.4 68 20 77 77 NW 5 7 29.84 1011 10 16 0.00 0.00
9:52 pm 21:52 Clear 74 23.3 68 20 82 82 Calm 29.86 1011 10 16 0.00 0.00
10:52 pm 22:52 Clear 71 21.7 67 19.4 87 87 Calm 29.86 1011 10 16 0.00 0.00
11:52 pm 23:52 Partly Cloudy 71 21.7 64 17.8 79 79 SSE 12 19 29.89 1012 10 16 0.00 0.00

Powered by AerisWeather